Wind_Speed
89 86 85 83 83 82 82 81 80 79 79 79 78 78 77 77 78 78 77 77 77 78 79 80 81 82 81 81 81 82 83 83 83 83 84 85 85 85 84 84 84 85 87 88 90 90 89 89 88 87 87 87
96 95 92 90 89 89 88 88 86 85 84 84 83 83 82 82 81 81 81 80 80 81 81 82 83 84 84 85 85 84 84 84 85 87 87 87 87 87 86 86 86 86 87 89 90 91 91 91 91 91 90 90
100 100 99 98 96 94 94 93 93 92 91 90 90 89 88 88 87 87 86 86 86 85 85 84 84 85 87 87 88 88 87 87 87 89 89 90 90 89 89 89 89 90 90 90 91 92 93 93 94 94 94 93
102 103 102 102 101 99 97 96 96 95 95 94 94 94 93 94 94 94 94 93 91 91 90 90 89 91 91 91 91 90 90 90 90 90 91 92 92 91 91 91 91 92 92 92 93 94 95 95 96 96 96 96
103 103 104 104 103 102 100 99 97 96 96 96 96 96 96 96 97 99 100 100 98 95 95 95 96 98 98 97 97 96 95 94 94 94 94 94 94 93 93 93 93 93 93 94 94 95 96 97 98 98 98 98
102 102 102 103 102 102 101 100 99 97 97 97 97 97 98 98 99 101 102 103 102 100 99 99 99 101 103 102 101 101 100 100 100 99 99 98 97 96 95 95 94 94 95 95 96 96 97 98 99 100 100 100
100 100 100 100 100 100 100 100 99 98 98 98 97 97 98 99 101 102 103 103 104 104 103 101 101 102 102 103 102 102 102 103 103 103 103 104 103 102 101 99 99 98 98 99 99 99 100 100 101 102 103 103
100 100 99 99 99 99 100 99 99 99 98 98 97 97 98 99 101 102 102 103 103 103 103 103 103 103 103 103 103 103 103 104 104 104 105 106 106 107 107 107 106 105 105 104 104 104 105 105 105 106 107 107
101 100 100 99 99 99 99 99 99 98 98 97 97 97 97 99 100 100 100 101 101 101 102 103 104 104 105 105 105 104 105 107 107 107 107 107 107 108 109 110 110 110 110 110 110 110 110 110 111 111 111 111
100 100 100 99 99 98 98 98 98 98 97 97 96 96 97 98 99 99 99 100 100 100 100 101 102 103 105 106 106 106 107 108 109 109 109 108 108 109 109 110 111 112 113 114 114 115 115 114 114 114 114 114
99 98 98 98 97 97 97 97 97 97 97 96 96 97 97 98 98 98 99 99 100 99 100 101 102 103 104 105 106 106 107 108 109 109 110 109 109 109 110 111 112 113 115 116 117 117 117 117 117 117 117 117
97 96 96 96 95 96 96 96 96 96 96 96 96 97 97 98 98 99 99 100 100 100 100 101 101 102 103 104 105 106 106 107 108 108 109 110 110 110 111 112 113 114 115 117 118 118 119 119 119 119 119 120
96 96 96 96 95 95 96 96 96 97 97 97 97 98 98 98 98 98 99 100 101 101 101 101 102 102 103 104 104 105 105 106 107 107 108 109 109 109 110 111 112 114 114 116 117 118 119 120 120 121 121 122
97 97 97 96 95 96 97 97 97 98 98 98 98 98 99 99 99 99 99 100 101 102 102 103 103 103 103 104 104 105 105 106 106 106 107 108 108 108 109 109 110 111 112 113 114 115 117 118 119 120 121 122
98 98 98 97 97 98 98 98 99 99 99 99 98 99 99 100 100 100 101 101 102 102 103 104 104 104 105 104 105 106 106 107 107 106 107 108 108 108 108 109 109 110 110 111 111 112 113 114 116 117 118 119
99 100 100 99 100 100 100 100 100 100 100 100 100 100 100 101 101 102 102 103 103 104 104 105 105 106 106 106 107 107 108 108 108 107 108 108 109 108 109 109 109 110 110 110 110 111 111 112 113 114 114 115
102 102 102 102 102 103 102 102 102 102 102 102 101 102 102 102 103 103 104 105 105 105 105 106 106 107 107 107 108 109 109 109 109 109 109 110 110 110 110 110 110 110 111 111 111 111 112 112 112 113 113 113
104 105 105 105 105 105 105 104 104 104 104 104 104 104 104 105 105 106 106 106 107 107 107 107 107 108 108 109 109 110 111 111 111 111 111 111 112 112 112 112 112 112 113 113 112 112 113 114 114 114 114 114
107 107 107 106 106 106 106 107 107 107 107 107 107 107 107 107 108 109 109 109 109 109 109 109 110 110 110 111 111 112 112 112 112 112 113 113 114 113 113 113 113 114 114 114 114 114 114 115 115 115 115 115
110 109 109 109 109 109 109 109 109 109 109 109 110 110 110 110 111 111 111 111 111 111 112 112 112 113 113 113 113 114 114 114 114 114 115 115 115 115 115 115 115 115 115 115 115 115 116 117 117 117 117 117
113 112 112 112 112 112 112 113 113 113 113 113 113 113 113 113 113 114 114 114 114 114 114 115 115 116 116 116 116 116 116 116 117 117 117 117 117 117 118 118 117 117 117 117 117 118 118 118 119 119 119 119
115 115 115 115 116 116 116 116 116 116 116 116 116 116 116 116 116 116 117 117 117 117 118 118 119 119 119 119 119 119 119 119 119 120 120 120 120 120 121 121 121 120 120 120 120 121 121 121 121 121 122 122
117 118 118 119 119 119 119 120 119 119 119 119 119 119 119 119 119 119 120 120 120 121 121 122 122 122 122 122 122 123 122 122 123 123 123 123 123 124 124 124 124 124 124 124 124 124 124 124 124 125 125 125
120 121 121 122 122 122 122 122 122 122 122 122 122 122 122 122 122 123 123 123 124 124 125 125 125 125 125 126 126 126 126 126 126 126 126 126 127 127 127 127 128 128 128 128 128 127 127 128 128 128 129 129
123 124 124 125 125 125 125 125 125 125 125 125 125 125 125 125 126 126 127 127 127 128 128 128 129 129 129 129 129 129 129 130 130 130 130 130 130 130 131 131 131 131 132 132 131 131 132 132 132 132 132 132
124 125 126 127 127 127 127 127 127 127 127 127 127 128 128 129 129 130 130 130 131 131 131 131 132 132 132 132 133 133 133 133 134 134 134 134 134 134 135 135 135 135 135 135 135 135 135 136 136 137 137 136
123 125 126 126 127 127 127 127 128 128 128 129 129 130 130 131 131 132 132 132 132 133 133 133 134 134 135 135 135 136 136 136 137 137 137 137 138 138 138 138 138 138 138 138 139 139 139 139 140 140 140 140
122 123 124 124 125 125 126 126 127 127 128 129 129 130 131 131 131 132 132 133 133 134 134 135 135 136 136 137 137 138 138 138 139 139 139 140 140 140 141 141 141 141 141 141 141 142 142 142 143 143 143 143
123 124 124 124 125 125 125 126 126 127 127 128 128 129 130 130 131 132 132 133 134 134 135 135 136 136 137 137 138 139 139 140 140 140 141 141 141 142 142 143 143 143 143 143 144 144 144 145 145 145 145 145
124 125 125 126 126 126 126 127 127 127 127 127 128 128 129 129 130 130 131 131 132 133 133 134 134 135 136 136 137 138 138 139 140 140 141 142 142 142 143 143 144 144 144 144 145 145 145 146 145 145 146 146
126 126 126 126 126 126 126 126 126 126 126 126 126 126 126 127 127 127 128 128 129 130 130 131 132 132 133 134 135 136 136 137 138 139 140 141 141 142 142 143 143 144 145 145 145 146 146 146 146 146 146 146
Wind_Direction
253 254 253 253 253 254 254 253 253 253 253 253 252 253 255 256 258 258 258 258 259 260 261 260 260 261 261 261 262 263 263 265 266 266 266 267 268 268 268 268 268 269 269 269 269 270 272 273 274 274 274 274
254 255 255 256 255 255 256 256 256 256 256 255 254 254 254 254 255 256 257 257 258 259 259 259 259 259 260 259 260 261 262 263 264 264 265 266 266 267 267 268 268 269 269 269 269 270 271 272 273 274 275 275
253 254 256 257 258 257 257 257 257 257 257 257 256 256 256 255 255 256 256 256 256 257 258 259 259 260 260 259 259 260 261 262 263 263 263 264 265 266 267 267 268 268 268 269 269 270 270 271 272 273 274 275
254 255 256 258 259 260 260 259 258 258 257 257 257 256 256 256 256 257 257 257 257 257 257 258 259 260 260 261 261 261 261 261 262 263 263 263 264 265 265 266 267 267 268 268 269 269 270 270 271 272 273 273
257 258 258 259 260 260 261 261 260 259 258 258 257 256 256 256 256 256 256 258 258 258 257 257 258 259 260 260 261 262 262 262 262 263 263 263 263 264 264 265 266 266 267 267 268 268 269 270 271 272 272 273
259 259 260 260 260 260 260 260 260 259 259 258 258 257 257 257 256 256 256 256 258 258 258 258 258 259 259 260 260 261 261 262 262 263 263 263 264 264 264 264 265 265 266 267 268 268 269 269 270 271 271 272
259 259 259 259 259 259 259 259 259 259 259 259 258 258 258 257 257 257 257 257 257 257 258 258 259 259 260 261 261 261 261 261 261 262 263 263 264 264 264 264 264 265 266 267 268 268 269 269 270 271 271 272
259 259 258 258 258 259 259 259 259 258 258 258 258 258 257 257 257 258 258 258 258 257 257 258 259 259 260 261 261 261 261 262 262 263 263 263 263 264 264 265 265 265 266 267 268 269 270 270 271 272 272 272
258 258 258 258 258 258 258 258 258 258 258 257 257 257 257 257 257 258 258 258 258 258 258 258 259 260 260 261 261 261 261 262 263 264 264 264 263 263 264 264 265 265 266 267 268 270 270 270 271 272 272 273
258 258 258 257 257 257 257 257 257 257 257 256 256 256 256 257 257 258 259 259 259 259 259 259 259 259 260 261 261 262 262 262 263 264 264 264 264 264 264 264 265 265 266 266 268 269 270 270 271 271 272 272
256 256 256 256 256 256 256 256 256 256 256 256 256 256 256 256 257 258 259 259 260 260 260 260 260 260 260 261 261 261 262 262 263 263 264 264 264 264 264 265 265 265 266 266 268 269 269 270 270 270 271 271
254 254 254 254 254 254 254 255 255 255 255 256 256 256 257 257 257 258 258 259 260 260 260 260 261 261 261 261 261 261 262 262 263 263 263 264 264 264 265 265 265 265 266 267 267 268 269 269 269 270 270 271
252 252 252 252 252 253 253 254 254 255 255 255 256 257 257 258 258 258 259 259 260 260 261 261 261 261 261 262 262 262 262 262 262 263 263 264 264 264 265 265 265 266 266 266 267 267 268 268 269 269 269 270
251 251 251 252 252 252 253 253 254 255 255 256 256 257 258 258 259 259 259 260 260 260 261 261 261 262 262 262 262 262 262 262 262 263 263 263 264 264 264 265 265 266 266 266 267 267 268 268 268 269 269 269
251 251 252 252 252 252 253 253 254 255 255 256 257 257 258 259 259 260 260 261 261 261 261 262 262 262 263 263 263 263 263 263 263 263 263 264 264 264 264 265 265 265 266 266 267 267 267 268 268 268 269 269
251 251 252 252 252 252 253 253 254 255 256 256 257 258 259 259 260 261 261 262 262 263 263 263 264 264 264 264 264 264 265 264 264 264 264 265 265 265 265 265 265 265 266 266 266 267 267 268 268 268 269 269
251 252 252 252 252 253 253 254 254 255 256 257 257 258 259 260 260 261 262 262 263 264 264 265 265 265 266 266 266 266 266 266 266 266 266 266 266 266 266 266 266 266 266 266 266 267 267 267 268 268 268 269
252 252 253 253 253 254 254 255 255 256 257 257 258 259 259 260 261 261 262 263 264 264 265 265 266 266 267 267 267 267 267 268 268 268 268 267 267 267 267 267 267 267 267 267 267 268 268 268 268 268 269 270
253 253 254 254 255 255 256 256 256 257 257 258 259 259 260 261 261 262 263 263 264 264 265 266 266 266 267 267 267 268 268 268 268 268 268 268 268 268 268 268 268 268 268 268 268 268 269 269 269 270 270 270
254 255 255 255 256 256 257 257 258 258 258 259 260 260 260 261 262 262 263 263 264 264 265 266 266 266 267 267 267 268 268 268 268 268 268 268 268 268 268 268 268 268 268 268 268 268 269 269 270 270 270 271
254 255 256 256 257 257 258 258 259 259 259 260 260 261 261 262 262 263 263 264 264 265 265 266 266 266 267 267 268 268 268 268 268 268 268 268 268 268 268 267 267 267 268 268 268 268 268 269 269 270 270 270
255 255 256 257 257 258 258 259 259 259 260 260 261 261 262 262 263 263 264 264 265 265 266 266 266 267 267 267 268 268 268 268 268 268 268 268 267 267 267 267 267 267 267 268 268 268 268 269 269 269 269 270
255 256 257 257 257 258 258 259 259 260 260 261 261 262 262 263 263 264 264 265 265 266 266 266 267 267 267 267 268 268 268 268 268 268 268 268 268 268 267 267 267 267 267 267 268 268 268 269 269 269 269 270
256 256 257 257 258 258 258 259 260 260 261 261 262 262 263 263 264 264 265 265 265 266 266 266 267 267 267 267 267 268 268 268 268 268 268 268 268 268 268 268 268 268 268 268 268 268 268 268 269 269 269 270
256 256 257 257 258 258 259 259 260 260 261 262 262 263 263 264 264 264 265 265 265 266 266 266 267 267 267 267 267 267 268 268 268 268 268 268 268 268 268 268 268 268 268 268 268 269 269 269 269 269 269 270
256 257 257 257 258 259 259 260 260 261 261 262 262 263 263 263 264 264 265 265 265 266 266 266 267 267 267 267 267 267 267 267 267 267 268 268 268 268 268 268 268 268 268 269 269 269 269 270 270 270 270 270
257 258 258 259 259 259 260 261 261 261 262 262 262 263 263 264 264 265 265 265 266 266 266 266 266 266 266 266 267 267 267 267 267 267 267 268 268 268 268 268 268 268 269 269 269 269 270 270 270 270 271 271
259 259 260 260 260 261 261 262 262 262 262 263 263 264 264 264 265 265 265 265 266 266 266 266 266 266 266 266 267 267 267 267 267 267 267 268 268 268 268 268 268 269 269 269 269 270 270 270 270 271 271 271
261 261 261 262 262 262 263 263 263 264 264 264 264 265 265 265 265 266 266 266 266 266 266 266 266 266 267 267 267 267 267 267 267 267 267 268 268 268 268 269 269 269 269 269 270 270 270 270 271 271 271 272
262 262 263 263 263 264 264 264 265 265 265 265 265 266 266 266 266 266 266 267 267 267 267 267 267 267 267 267 267 267 267 267 267 267 268 268 268 268 268 269 269 269 269 269 270 270 270 270 271 271 271 271
263 263 264 264 264 264 265 265 265 265 266 266 266 266 266 266 267 267 267 267 267 267 267 267 267 267 267 267 267 267 267 267 267 268 268 268 268 268 268 269 269 269 269 270 270 270 270 270 271 271 271 271
Height
10796 10799 10802 10804 10805 10806 10808 10809 10810 10811 10813 10815 10817 10817 10817 10817 10817 10818 10820 10821 10821 10822 10822 10822 10823 10823 10825 10827 10827 10827 10827 10828 10829 10827 10825 10825 10824 10824 10825 10825 10825 10825 10824 10824 10824 10824 10824 10825 10826 10825 10826 10826
10788 10791 10794 10795 10797 10799 10800 10802 10804 10805 10806 10808 10810 10812 10812 10812 10812 10813 10815 10816 10815 10815 10816 10816 10816 10816 10817 10819 10820 10820 10821 10822 10821 10819 10818 10817 10816 10817 10818 10818 10818 10818 10817 10817 10817 10817 10817 10818 10818 10818 10818 10819
10781 10783 10786 10786 10789 10792 10793 10794 10797 10798 10799 10800 10802 10804 10806 10806 10806 10806 10808 10809 10809 10809 10809 10810 10810 10810 10810 10811 10812 10814 10814 10814 10813 10811 10811 10810 10809 10810 10811 10812 10811 10811 10810 10810 10811 10811 10811 10811 10811 10811 10811 10811
10774 10776 10778 10778 10781 10784 10784 10785 10788 10790 10791 10793 10794 10795 10797 10799 10799 10800 10799 10800 10802 10803 10804 10804 10803 10802 10802 10804 10805 10806 10806 10806 10805 10804 10804 10801 10801 10803 10804 10804 10803 10803 10803 10803 10804 10804 10803 10804 10804 10803 10804 10804
10766 10768 10769 10770 10772 10775 10775 10776 10778 10780 10781 10783 10784 10786 10788 10790 10792 10792 10791 10792 10795 10796 10796 10796 10795 10793 10792 10795 10796 10797 10798 10798 10797 10797 10795 10794 10795 10796 10796 10796 10795 10795 10795 10796 10796 10796 10796 10796 10796 10796 10797 10796
10757 10758 10759 10760 10762 10764 10765 10767 10768 10770 10771 10772 10774 10777 10780 10782 10783 10783 10783 10785 10787 10788 10788 10787 10786 10783 10782 10784 10787 10789 10790 10789 10788 10788 10787 10787 10789 10789 10789 10788 10788 10788 10788 10788 10788 10788 10788 10788 10788 10788 10789 10788
10747 10748 10750 10751 10752 10754 10755 10758 10759 10761 10762 10763 10765 10768 10771 10772 10772 10773 10774 10776 10777 10778 10779 10778 10777 10774 10772 10773 10777 10780 10781 10780 10779 10779 10779 10780 10781 10782 10781 10781 10781 10780 10780 10780 10780 10780 10780 10780 10780 10780 10780 10780
10737 10739 10740 10742 10744 10745 10747 10749 10750 10752 10753 10755 10757 10760 10763 10762 10762 10764 10765 10766 10766 10768 10770 10769 10767 10766 10765 10764 10767 10771 10772 10771 10770 10771 10772 10773 10773 10773 10773 10773 10772 10772 10772 10772 10772 10772 10771 10771 10771 10771 10771 10771
10728 10729 10732 10734 10736 10737 10738 10740 10741 10743 10745 10747 10750 10752 10754 10754 10753 10754 10755 10754 10755 10757 10759 10758 10757 10758 10757 10755 10758 10762 10762 10761 10761 10762 10763 10764 10765 10765 10765 10764 10764 10764 10763 10763 10763 10762 10762 10762 10762 10762 10761 10761
10719 10721 10723 10725 10728 10729 10730 10731 10732 10733 10736 10739 10741 10744 10744 10744 10744 10744 10744 10743 10744 10747 10747 10747 10748 10749 10748 10747 10749 10752 10752 10751 10752 10753 10753 10754 10756 10756 10756 10755 10755 10755 10754 10754 10754 10753 10753 10753 10752 10752 10752 10752
10711 10713 10714 10716 10719 10720 10721 10722 10723 10725 10727 10730 10732 10733 10733 10734 10734 10734 10734 10733 10734 10737 10737 10737 10738 10739 10739 10738 10740 10742 10743 10742 10742 10743 10743 10745 10747 10747 10747 10747 10746 10746 10746 10746 10745 10744 10743 10743 10743 10742 10742 10741
10702 10705 10705 10707 10711 10711 10712 10713 10715 10717 10719 10720 10722 10722 10722 10724 10724 10725 10725 10724 10724 10727 10727 10727 10727 10728 10728 10729 10730 10732 10734 10733 10733 10734 10734 10735 10737 10738 10738 10737 10736 10737 10737 10736 10735 10734 10733 10732 10732 10731 10731 10731
10694 10696 10695 10699 10703 10703 10704 10705 10706 10708 10709 10710 10712 10712 10712 10714 10715 10715 10715 10714 10715 10716 10717 10717 10717 10718 10718 10719 10720 10722 10724 10723 10723 10725 10725 10724 10727 10728 10728 10727 10726 10726 10726 10725 10724 10723 10722 10721 10721 10720 10720 10719
10685 10686 10686 10691 10695 10694 10695 10697 10698 10698 10699 10701 10703 10703 10703 10704 10705 10705 10705 10704 10705 10706 10706 10707 10708 10707 10708 10710 10710 10711 10712 10712 10713 10716 10715 10714 10716 10718 10717 10717 10715 10715 10715 10714 10714 10712 10711 10710 10710 10709 10708 10708
10678 10677 10679 10684 10685 10684 10686 10687 10687 10688 10690 10692 10694 10694 10694 10694 10694 10695 10694 10694 10694 10695 10695 10697 10698 10698 10699 10700 10699 10699 10701 10701 10704 10706 10705 10703 10706 10707 10706 10706 10705 10704 10704 10703 10703 10702 10700 10699 10699 10698 10697 10696
10669 10669 10672 10675 10673 10674 10676 10677 10678 10680 10681 10683 10684 10684 10684 10683 10683 10684 10683 10683 10684 10685 10686 10687 10688 10688 10689 10690 10688 10688 10690 10691 10692 10695 10695 10693 10694 10695 10695 10695 10694 10693 10693 10692 10692 10691 10689 10689 10688 10687 10686 10685
10659 10659 10661 10663 10663 10665 10666 10668 10670 10671 10672 10672 10673 10674 10674 10673 10672 10672 10672 10672 10673 10675 10676 10677 10678 10678 10678 10679 10679 10678 10678 10679 10680 10683 10684 10682 10682 10682 10682 10682 10683 10682 10681 10682 10682 10681 10679 10678 10677 10676 10675 10674
10647 10647 10650 10652 10654 10656 10657 10659 10661 10661 10661 10661 10662 10663 10663 10662 10661 10661 10662 10663 10663 10664 10665 10666 10667 10667 10667 10668 10668 10667 10666 10667 10669 10670 10670 10669 10669 10670 10669 10671 10671 10670 10669 10670 10671 10670 10668 10666 10665 10665 10664 10663
10635 10637 10641 10643 10645 10646 10647 10648 10649 10649 10650 10651 10651 10652 10652 10651 10651 10651 10651 10653 10653 10654 10654 10655 10655 10656 10656 10656 10656 10656 10655 10657 10657 10657 10656 10655 10656 10657 10657 10657 10658 10657 10657 10658 10659 10658 10656 10653 10652 10653 10653 10652
10625 10628 10632 10634 10635 10635 10636 10636 10637 10638 10639 10640 10640 10641 10641 10641 10640 10640 10641 10641 10642 10643 10643 10643 10643 10643 10643 10644 10644 10644 10644 10645 10645 10644 10642 10642 10643 10643 10643 10644 10644 10644 10644 10645 10645 10644 10643 10641 10641 10642 10641 10640
10616 10619 10621 10622 10623 10624 10625 10625 10625 10626 10628 10629 10629 10629 10630 10630 10630 10630 10630 10630 10631 10632 10632 10632 10631 10631 10631 10632 10632 10632 10632 10631 10631 10631 10630 10629 10630 10630 10629 10630 10631 10631 10631 10632 10631 10631 10630 10629 10629 10629 10628 10627
10607 10609 10610 10611 10612 10612 10612 10613 10614 10615 10616 10617 10618 10618 10619 10619 10619 10619 10619 10619 10619 10620 10620 10620 10619 10619 10620 10620 10620 10619 10619 10618 10617 10617 10616 10616 10616 10617 10616 10615 10616 10618 10618 10617 10617 10618 10617 10617 10617 10616 10615 10614
10597 10598 10598 10598 10598 10599 10600 10601 10602 10604 10605 10606 10607 10607 10607 10607 10607 10607 10608 10607 10608 10608 10608 10607 10607 10608 10608 10608 10607 10606 10606 10605 10604 10603 10603 10602 10602 10603 10602 10600 10602 10604 10604 10603 10603 10605 10604 10604 10602 10601 10601 10600
10586 10585 10585 10584 10585 10587 10588 10589 10591 10592 10594 10595 10595 10595 10596 10596 10596 10596 10596 10596 10596 10596 10595 10594 10594 10595 10595 10595 10593 10593 10592 10591 10590 10589 10589 10588 10587 10587 10586 10586 10588 10588 10587 10588 10590 10591 10590 10589 10588 10587 10586 10586
10572 10572 10571 10572 10573 10575 10577 10578 10579 10581 10582 10583 10583 10584 10584 10584 10584 10583 10583 10583 10584 10583 10583 10582 10581 10582 10582 10581 10580 10579 10578 10577 10576 10575 10574 10574 10573 10572 10571 10571 10573 10572 10571 10573 10575 10575 10574 10573 10573 10572 10571 10571
10558 10558 10559 10560 10562 10563 10565 10567 10568 10569 10570 10571 10571 10571 10570 10570 10570 10570 10570 10570 10570 10570 10570 10569 10568 10568 10567 10567 10565 10564 10564 10562 10561 10560 10559 10559 10558 10558 10556 10556 10557 10557 10556 10558 10559 10558 10558 10556 10555 10555 10555 10558
10545 10546 10547 10548 10550 10552 10553 10555 10556 10556 10556 10557 10557 10557 10556 10557 10557 10557 10557 10556 10556 10556 10555 10554 10553 10552 10552 10551 10550 10549 10548 10548 10547 10546 10545 10544 10543 10542 10542 10541 10541 10542 10542 10542 10543 10542 10542 10541 10538 10537 10538 10541
10534 10534 10536 10537 10538 10540 10541 10541 10542 10543 10543 10543 10543 10543 10543 10543 10543 10542 10542 10541 10541 10540 10540 10539 10538 10537 10537 10536 10535 10534 10533 10532 10532 10531 10530 10529 10528 10527 10526 10526 10526 10526 10526 10527 10528 10525 10524 10524 10524 10522 10522 10522
10523 10523 10524 10525 10526 10527 10528 10528 10529 10529 10530 10530 10530 10530 10529 10529 10528 10528 10527 10526 10525 10525 10524 10524 10523 10522 10521 10520 10519 10519 10518 10517 10516 10516 10515 10514 10513 10512 10511 10510 10510 10510 10510 10511 10511 10509 10508 10508 10508 10508 10506 10505
10511 10512 10512 10513 10514 10514 10515 10515 10515 10515 10515 10515 10515 10515 10514 10514 10514 10513 10512 10511 10510 10509 10509 10508 10507 10506 10506 10504 10504 10503 10502 10501 10500 10500 10499 10499 10498 10497 10496 10495 10494 10493 10494 10495 10494 10491 10491 10492 10492 10491 10489 10490
10497 10498 10499 10499 10500 10500 10501 10501 10501 10501 10501 10501 10501 10500 10500 10500 10499 10498 10497 10496 10495 10494 10493 10492 10491 10490 10489 10489 10488 10487 10486 10486 10485 10484 10483 10483 10482 10481 10480 10480 10479 10477 10476 10478 10478 10474 10474 10475 10474 10474 10473 10472